[[{"header":{"parameterUnit":"m.s-1","parameterCategory":1,"la1":30.2991,"la2":30.254,"lo1":-89.0895,"lo2":-89.0444,"dy":0.0017,"dx":0.0017,"nx":28,"ny":28,"refTime":"2025-08-05T21:00:00:Z","depth":0,"parameterNumber":2,"parameterNumberName":"U-component_of_WINDS"},"data":[0,0,0,0,0,0,0,0,0,0,0,0,0,0,0,0,0,0,0,0,0,0,0,0,0,0,0,0,0,0,0,0,0,0,0,0,0,0,0,0,0,0,0,0,0,0,0,0,0,0,0,0,0,0,0,0,0,0,-3.8151,-3.8151,0,-3.8159,-3.8159,-3.8159,-3.8054,-3.8051,-3.8048,-3.8045,-3.8051,-3.8054,-3.8057,0,0,0,0,0,0,0,0,0,0,0,0,0,-3.8044,-3.8046,-3.8151,-3.8151,-3.8151,-3.8159,-3.8159,-3.8159,-3.8054,-3.8051,-3.8047,-3.8044,-3.805,-3.8054,-3.8057,0,0,0,0,0,0,0,0,0,0,0,0,0,-3.8075,-3.8047,-3.8151,-3.81,-3.8095,-3.8159,-3.8159,-3.8159,-3.8055,-3.8051,-3.8046,-3.8042,-3.8049,-3.8053,-3.8057,-3.8169,0,0,-3.807,-3.8072,0,0,0,0,0,0,0,0,-3.8073,-3.8079,-3.8107,-3.8104,-3.8099,-3.8101,-3.8123,-3.8162,-3.8056,-3.807,-3.8045,-3.804,-3.8071,-3.8073,-3.8084,-3.8169,-3.817,-3.8071,-3.8073,-3.8075,-3.8076,0,0,0,0,0,0,0,-3.8071,-3.8078,-3.8154,-3.8108,-3.8103,-3.8076,-3.8076,-3.813,-3.8094,-3.8069,-3.8061,-3.8064,-3.8068,-3.808,-3.8083,-3.817,-3.8071,-3.8074,-3.8077,-3.8079,-3.8347,-3.8351,0,0,0,0,0,0,-3.8076,-3.8077,-3.8153,-3.8154,-3.8075,-3.8081,-3.8081,-3.8104,-3.8094,-3.8088,-3.8067,-3.8059,-3.8075,-3.8078,-3.8083,-3.8213,-3.8075,-3.8079,-3.8081,-3.8342,-3.8348,-3.8353,0,0,0,0,0,0,-3.8074,-3.8084,-3.8153,-3.8113,-3.812,-3.8088,-3.8115,-3.8107,-3.8119,-3.8093,-3.8085,-3.8086,-3.8072,-3.8077,-3.8149,-3.8211,-3.8081,-3.8085,-3.8337,-3.8344,-3.835,-3.8474,0,0,0,0,0,0,-3.8072,-3.8084,-3.8126,-3.8115,-3.8123,-3.822,-3.8119,-3.811,-3.8127,-3.8116,-3.8109,-3.8103,-3.8069,-3.8143,-3.8153,-3.8215,-3.8088,-3.8331,-3.834,-3.8348,-3.8464,-3.8484,-3.8501,0,0,0,0,0,-3.8068,-3.816,-3.8129,-3.8139,-3.8175,-3.8223,-3.8227,-3.8186,-3.8132,-3.8174,-3.8157,-3.8104,-3.8203,-3.8151,-3.8161,-3.8226,-3.8327,-3.8337,-3.8348,-3.8455,-3.848,-3.8501,0,0,0,0,0,0,-3.8179,-3.8158,-3.8123,-3.8214,-3.8222,-3.8206,-3.8257,-3.8214,-3.8236,-3.8224,-3.8172,-3.8171,-3.8251,-3.8245,-3.8188,-3.8333,-3.8255,-3.8268,-3.8334,-3.8357,-3.8375,-3.8374,-3.8091,0,0,0,0,0,-3.8214,-3.8256,-3.8235,-3.8317,-3.8323,-3.829,-3.8309,-3.8277,-3.8282,-3.8284,-3.8272,-3.8279,-3.8311,-3.8334,-3.8362,-3.8463,-3.8459,-3.8512,-3.8531,-3.8546,-3.8558,-3.861,-3.8633,-3.8387,-3.8387,-3.8387,0,0,-3.8287,-3.828,-3.831,-3.8339,-3.8341,-3.8385,-3.8293,-3.8343,-3.8374,-3.8292,-3.8358,-3.835,-3.8354,-3.844,-3.8478,-3.8438,-3.8625,-3.8559,-3.8572,-3.8575,-3.8623,-3.8646,-3.8667,-3.8394,-3.8393,-3.8391,0,0,-3.8441,-3.8441,-3.851,-3.8514,-3.8518,-3.8496,-3.8513,-3.8504,-3.8495,-3.8562,-3.8501,-3.8537,-3.8595,-3.86,-3.861,-3.8768,-3.8719,-3.8779,-3.8876,-3.8927,-3.8947,-3.8964,-3.902,-3.904,-3.879,-3.8791,-3.8791,0,-3.8531,-3.8595,-3.855,-3.8605,-3.8619,-3.8548,-3.8617,-3.8623,-3.8636,-3.8647,-3.8603,-3.8674,-3.8671,-3.8758,-3.8797,-3.8807,-3.8824,-3.8779,-3.8948,-3.8964,-3.8979,-3.9032,-3.9053,-3.8798,-3.8797,-3.8796,-3.8796,0,-3.8704,-3.875,-3.8804,-3.882,-3.8841,-3.8903,-3.8867,-3.8894,-3.8861,-3.8843,-3.8911,-3.8906,-3.8932,-3.8951,-3.8918,-3.9033,-3.9008,-3.8957,-3.8877,-3.9011,-3.9059,-3.9079,-3.8808,-3.8806,-3.8803,-3.8802,0,0,-3.8927,-3.8919,-3.894,-3.8946,-3.8946,-3.898,-3.9038,-3.9065,-3.9088,-3.91,-3.9147,-3.9198,-3.9151,-3.9163,-3.913,-3.9176,-3.9301,-3.9118,-3.9118,-3.9152,-3.9426,-3.9464,-3.9489,-3.9269,-3.9273,-3.9276,-3.9426,0,-3.9077,-3.9176,-3.9139,-3.9241,-3.9282,-3.9215,-3.9266,-3.9271,-3.9257,-3.9289,-3.9272,-3.9309,-3.9244,-3.9251,-3.9293,-3.9277,-3.9355,-3.9265,-3.9311,-3.9314,-3.9312,-3.9514,-3.9554,-3.9696,-3.9445,-3.9448,-3.945,0,-3.9265,-3.9286,-3.9392,-3.9385,-3.9401,-3.9448,-3.9469,-3.9501,-3.9506,-3.9492,-3.9506,-3.9464,-3.952,-3.9442,-3.9518,-3.9458,-3.9475,-3.947,-3.9474,-3.9476,-3.9389,-3.9521,-3.974,-3.9762,-3.948,-3.9477,-3.9475,0,-3.9416,-3.9471,-3.9541,-3.9549,-3.9543,-3.9577,-3.9576,-3.9577,-3.9595,-3.9614,-3.9626,-3.9651,-3.9664,-3.9684,-3.965,-3.9597,-3.9731,-3.965,-3.972,-3.9722,-3.9751,-3.9749,-3.9976,-3.9764,-3.9763,-3.9763,-3.9762,0,-3.9587,-3.9654,-3.9609,-3.9653,-3.9726,-3.9683,-3.9757,-3.9748,-3.975,-3.979,-3.9734,-3.9772,-3.9725,-3.9759,-3.9733,-3.98,-3.9806,-3.9796,-3.9788,-3.9801,-3.9802,-3.981,-3.9799,-3.9768,-3.9767,-3.9766,-3.9765,0,-3.9767,-3.974,-3.9813,-3.9802,-3.9801,-3.9856,-3.9846,-3.9885,-3.9867,-3.9919,-3.9928,-3.99,-3.9937,-3.9906,-3.9941,-3.9924,-4.0013,-3.9991,-4.0011,-4.0005,-4.0077,-4.007,-4.0315,-4.0345,-4.0115,-4.0117,-4.0119,0,-3.9878,-3.9928,-3.9923,-3.9947,-3.995,-3.9988,-4.0007,-3.9966,-3.9988,-3.9998,-4.0036,-4.0069,-4.0093,-4.0156,-4.0138,-4.0166,-4.0143,-4.0228,-4.0147,-4.0158,-4.0144,-4.0141,-4.0145,-4.0244,-4.0246,-4.0249,-4.025,0,-4.0076,-4.006,-4.009,-4.0116,-4.0141,-4.0159,-4.0172,-4.0195,-4.0153,-4.0181,-4.0219,-4.0238,-4.0275,-4.0308,-4.033,-4.0328,-4.0283,-4.0276,-4.0294,-4.0306,-4.0316,-4.0311,-4.0055,-4.027,-4.0268,-4.0267,-4.0266,-4.0265,-4.0224,-4.0266,-4.0269,-4.0305,-4.0311,-4.0325,-4.0362,-4.0349,-4.0381,-4.0408,-4.0382,-4.0428,-4.0432,-4.0457,-4.046,-4.0495,-4.046,-4.0486,-4.0492,-4.0499,-4.0509,-4.0312,-4.0499,-4.0499,-4.0498,-4.0498,-4.0497,0,-4.0418,-4.0418,-4.0451,-4.0472,-4.05,-4.0457,-4.047,-4.0496,-4.0537,-4.0545,-4.057,-4.0614,-4.0646,-4.0632,-4.066,-4.0691,-4.0671,-4.0699,-4.0696,-4.0696,-4.0539,-4.0521,-4.0715,-4.0715,-4.0715,-4.0715,-4.0715,-4.0715,-4.0523,-4.0591,-4.0576,-4.0648,-4.0646,-4.0691,-4.0703,-4.0715,-4.0721,-4.0773,-4.08,-4.0791,-4.079,-4.0817,-4.0845,-4.0839,-4.0852,-4.0888,-4.0876,-4.0729,-4.0707,-4.0687,-4.0669,-4.0892,-4.0892,-4.103,-4.1031,-4.1032]},{"header":{"parameterUnit":"m.s-1","parameterCategory":1,"la1":30.2991,"la2":30.254,"lo1":-89.0895,"lo2":-89.0444,"dy":0.0017,"dx":0.0017,"nx":28,"ny":28,"refTime":"2025-08-05T21:00:00:Z","depth":0,"parameterNumber":3,"parameterNumberName":"V-component_of_WINDS"},"data":[0,0,0,0,0,0,0,0,0,0,0,0,0,0,0,0,0,0,0,0,0,0,0,0,0,0,0,0,0,0,0,0,0,0,0,0,0,0,0,0,0,0,0,0,0,0,0,0,0,0,0,0,0,0,0,0,0,0,0.9833,0.9834,0,0.9932,0.9933,0.9934,0.9966,0.9966,0.9965,0.9965,1.0066,1.0069,1.0072,0,0,0,0,0,0,0,0,0,0,0,0,0,0.9672,0.9675,0.9833,0.9834,0.9836,0.9932,0.9933,0.9934,0.9966,0.9966,0.9965,0.9965,1.0065,1.0068,1.0072,0,0,0,0,0,0,0,0,0,0,0,0,0,0.9753,0.9676,0.9833,0.9863,0.9867,0.9931,0.9933,0.9935,0.9966,0.9966,0.9965,0.9965,1.0064,1.0068,1.0073,1.0114,0,0,1.0087,1.0089,0,0,0,0,0,0,0,0,0.9749,0.9759,0.9857,0.9861,0.9865,0.9936,0.9913,0.9995,0.9967,0.9929,0.9965,0.9964,1.0023,1.0031,1.0051,1.0119,1.0123,1.0087,1.009,1.0092,1.0093,0,0,0,0,0,0,0,0.9743,0.9755,0.9872,0.9859,0.9864,0.9872,0.9883,0.9929,0.9978,0.9932,0.9934,0.9946,1.0025,1.0046,1.0054,1.0125,1.0087,1.0091,1.0094,1.0096,1.0232,1.0233,0,0,0,0,0,0,0.9732,0.975,0.9869,0.9875,0.9804,0.9875,0.9887,0.9914,0.9978,0.9987,0.9946,0.9947,1.0039,1.0048,1.0057,1.0111,1.0092,1.0096,1.0099,1.0231,1.0232,1.0233,0,0,0,0,0,0,0.9729,0.9743,0.9865,0.9814,0.983,0.9879,0.9908,0.9916,0.9938,0.9989,0.9998,0.9959,1.0039,1.0051,1.01,1.0115,1.0098,1.0103,1.023,1.0232,1.0233,1.0217,0,0,0,0,0,0,0.9724,0.9741,0.9758,0.9814,0.9832,0.9906,0.9909,0.9919,0.9946,0.9947,1.0003,1.0012,1.0039,1.0093,1.0105,1.0121,1.0106,1.0229,1.0231,1.0232,1.0217,1.0218,1.0219,0,0,0,0,0,0.9718,0.9749,0.9758,0.9772,0.9854,0.9907,0.9918,0.9949,0.9947,0.9963,0.9996,1.001,1.0111,1.0098,1.0111,1.0129,1.0228,1.023,1.0232,1.0216,1.0218,1.0219,0,0,0,0,0,0,0.9693,0.9757,0.9768,0.9818,0.9857,0.9912,0.9934,0.9949,0.9989,0.9989,1.0026,1.0039,1.0085,1.0112,1.0096,1.0172,1.017,1.0175,1.0153,1.0155,1.0156,1.0149,1.011,0,0,0,0,0,0.9694,0.9732,0.9785,0.9824,0.9843,0.9885,0.9909,0.993,0.9972,0.9988,1.0025,1.0065,1.0106,1.0132,1.0172,1.022,1.0233,1.0239,1.024,1.0241,1.0245,1.0273,1.0276,1.0239,1.0239,1.0239,0,0,0.9695,0.9734,0.9756,0.982,0.9853,0.9891,0.9899,0.9939,0.9968,0.9995,1.0044,1.0071,1.0118,1.0167,1.0191,1.0191,1.0258,1.0243,1.0243,1.0247,1.0275,1.0278,1.0281,1.0241,1.0241,1.024,0,0,0.9717,0.975,0.9786,0.9819,0.9868,0.9896,0.9905,0.9958,0.9978,1.0027,1.0048,1.0083,1.0152,1.0185,1.0211,1.0245,1.0259,1.0257,1.0263,1.029,1.0293,1.0295,1.0308,1.0312,1.0261,1.0261,1.0261,0,0.9712,0.9771,0.9803,0.9843,0.987,0.9896,0.9933,0.9963,1.0023,1.0041,1.0041,1.0129,1.0162,1.0219,1.0228,1.0247,1.0259,1.0251,1.029,1.0293,1.0296,1.0308,1.0313,1.026,1.026,1.026,1.026,0,0.9763,0.9803,0.9827,0.9884,0.9914,0.9952,0.999,1.0017,1.0035,1.0063,1.0113,1.0154,1.0203,1.0218,1.0236,1.0278,1.0277,1.0282,1.0281,1.0298,1.0311,1.0316,1.0259,1.0259,1.026,1.026,0,0,0.9772,0.9847,0.9855,0.9882,0.9938,0.997,1.0009,1.0057,1.008,1.012,1.0154,1.0212,1.0217,1.0247,1.0268,1.0292,1.0317,1.0294,1.0296,1.0298,1.0366,1.0362,1.0367,1.0326,1.0327,1.0328,1.0363,0,0.9802,0.9873,0.9904,0.9961,0.9999,1.0024,1.0058,1.0096,1.0123,1.0159,1.0189,1.023,1.0234,1.0252,1.0276,1.0308,1.0331,1.0306,1.0358,1.036,1.0347,1.0374,1.037,1.0401,1.0368,1.0368,1.0369,0,0.9846,0.9887,0.9948,1.0,1.0017,1.0048,1.0095,1.0129,1.0172,1.019,1.0223,1.0243,1.0285,1.028,1.0339,1.0321,1.0344,1.0363,1.0365,1.0372,1.0366,1.0382,1.0412,1.0416,1.0377,1.0376,1.0376,0,0.9848,0.9918,0.9964,0.9986,1.0047,1.0068,1.0095,1.0138,1.0165,1.0206,1.0224,1.0268,1.0293,1.0328,1.036,1.0353,1.0415,1.0413,1.0432,1.0431,1.0445,1.0444,1.0479,1.0458,1.0458,1.0458,1.0458,0,0.9879,0.9915,0.9966,0.9994,1.0036,1.007,1.0111,1.0139,1.0177,1.0211,1.0235,1.0266,1.0306,1.0343,1.0368,1.0413,1.0424,1.044,1.0447,1.0439,1.0437,1.0455,1.0454,1.0459,1.0459,1.0458,1.0458,0,0.9888,0.9923,0.9975,1.0029,1.0043,1.0072,1.0118,1.0147,1.0174,1.0218,1.023,1.0273,1.0318,1.0353,1.0411,1.0428,1.0475,1.0482,1.0461,1.0464,1.0481,1.048,1.0531,1.0539,1.0511,1.0511,1.0511,0,0.9906,0.9935,0.9992,1.0017,1.0043,1.0082,1.011,1.0145,1.0173,1.0225,1.0247,1.0293,1.0332,1.0402,1.0439,1.0483,1.0492,1.0506,1.0498,1.049,1.0493,1.0491,1.0495,1.0507,1.0508,1.0508,1.0508,0,0.9934,0.995,0.9989,1.0035,1.0068,1.0105,1.0143,1.0162,1.0204,1.0234,1.028,1.031,1.0369,1.0415,1.0463,1.049,1.0506,1.051,1.0517,1.051,1.0496,1.0505,1.0464,1.0509,1.0509,1.0509,1.0509,1.0508,0.9949,0.9976,1.002,1.0064,1.0096,1.0131,1.0161,1.0192,1.0231,1.0282,1.03,1.0347,1.039,1.0456,1.0484,1.0521,1.0522,1.0532,1.0535,1.0537,1.0537,1.0489,1.053,1.053,1.053,1.053,1.053,0,0.9979,1.0009,1.0048,1.0101,1.0135,1.0147,1.0189,1.0217,1.0258,1.0297,1.0335,1.0388,1.0432,1.0472,1.0518,1.0541,1.0549,1.0552,1.0551,1.0557,1.0532,1.0522,1.0544,1.0544,1.0544,1.0544,1.0544,1.0544,0.9999,1.0045,1.0067,1.0129,1.0159,1.0206,1.0229,1.0262,1.0293,1.0351,1.0388,1.0414,1.0453,1.0502,1.0544,1.0554,1.0571,1.0571,1.0584,1.0561,1.0559,1.0557,1.0548,1.0574,1.0574,1.0606,1.0606,1.0606]}]]